Regional Weather Roundup
Issued by NWS

Home | Current Version | Previous Version | Graphics & Text | Print | Product List | Glossary On
Versions: 1 2 3 4 5 6 7 8 9 10 11 12 13 14 15 16 17 18 19 20 21 22 23 24 25 26 27 28 29 30 31 32 33 34 35 36 37 38 39 40 41 42 43 44 45 46 47 48 49 50
000
ASUS43 KTOP 210008
RWRKS

WEATHER ROUNDUP FOR KANSAS
NATIONAL WEATHER SERVICE GOODLAND KS
700 PM CDT WED SEP 20 2017

NOTE:  "FAIR" INDICATES FEW OR NO CLOUDS BELOW 12,000 FEET WITH NO
SIGNIFICANT WEATHER AND/OR OBSTRUCTIONS TO VISIBILITY.

KSZ001>006-013>018-027>032-041>047-210100-
NORTHWEST KANSAS

CITY           SKY/WX    TMP DP  RH WIND       PRES   REMARKS
GOODLAND       CLEAR     75  32  20 S16       29.89S
6HR MIN TEMP:  71; 6HR MAX TEMP:  78;

HAYS           CLEAR     82  45  27 E10       29.84R
HILL CITY      CLEAR     81  34  18 E6        29.87R
6HR MIN TEMP:  76; 6HR MAX TEMP:  84;

RUSSELL        CLEAR     82  49  31 E10       29.83R
6HR MIN TEMP:  79; 6HR MAX TEMP:  87;

$$

KSZ061>065-074>080-084>089-210100-
SOUTHWEST KANSAS

CITY           SKY/WX    TMP DP  RH WIND       PRES   REMARKS
DODGE CITY     CLEAR     82  45  27 E6        29.86S
6HR MIN TEMP:  79; 6HR MAX TEMP:  87;

ELKHART          N/A     76  45  33 SE7         N/A
GARDEN CITY    CLEAR     81  39  22 SE10      29.87S
6HR MIN TEMP:  76; 6HR MAX TEMP:  84;

GREAT BEND     CLEAR     83  53  35 E8        29.83R
LIBERAL        CLEAR     80  47  31 SE5       29.87S
PRATT          CLEAR     83  52  33 CALM      29.83S
6HR MIN TEMP:  78; 6HR MAX TEMP:  85;

$$

KSZ066>073-081>083-090>101-210100-
SOUTHEAST KANSAS

CITY           SKY/WX    TMP DP  RH WIND       PRES   REMARKS
CHANUTE        MOCLDY    87  73  62 S9        29.81R
6HR MIN TEMP:  87; 6HR MAX TEMP:  92;

COFFEYVILLE    CLEAR     87  73  62 S10       29.80R
6HR MIN TEMP:  87; 6HR MAX TEMP:  92;

HUTCHINSON     CLEAR     86  62  44 S5        29.79S
6HR MIN TEMP:  81; 6HR MAX TEMP:  88;

MEDICINE LODGE   N/A     86  59  39 CALM      29.79R
NEWTON         PTCLDY    85  68  56 S7        29.81R
WICHITA INTL   PTCLDY    88  69  53 S10       29.78S
6HR MIN TEMP:  86; 6HR MAX TEMP:  92;

WICHITA JABRA  MOCLDY    88  70  55 S9        29.79R
6HR MIN TEMP:  85; 6HR MAX TEMP:  90;

WICHITA MCCONL CLEAR     88  68  51 SW8       29.79R
WINFIELD       PTCLDY    88  72  58 SE12      29.80R
6HR MIN TEMP:  85; 6HR MAX TEMP:  93;

$$

KSZ007>012-019>026-033>040-048>060-102>105-210100-
NORTHEAST KANSAS

CITY           SKY/WX    TMP DP  RH WIND       PRES   REMARKS
CONCORDIA      CLEAR     78  58  49 E5        29.83R
6HR MIN TEMP:  78; 6HR MAX TEMP:  84;

EMPORIA        CLOUDY    85  71  63 CALM      29.80R
6HR MIN TEMP:  84; 6HR MAX TEMP:  89;

LAWRENCE       MOCLDY    84  75  74 SE3       29.80R
6HR MIN TEMP:  84; 6HR MAX TEMP:  89;

MANHATTAN      CLEAR     85  66  53 N3        29.79S
6HR MIN TEMP:  84; 6HR MAX TEMP:  89;

MARYSVILLE     CLEAR     81  59  47 NE8       29.83R
OLATHE IND     MOCLDY    84  74  71 SE5       29.82R
6HR MIN TEMP:  83; 6HR MAX TEMP:  88;

OLATHE EXE     CLOUDY    84  76  76 S5        29.82R
6HR MIN TEMP:  82; 6HR MAX TEMP:  86;

SALINA         CLEAR     86  56  35 NE3       29.81R
6HR MIN TEMP:  83; 6HR MAX TEMP:  89;

TOPEKA BILLARD MOCLDY    85  74  69 SE3       29.80R
6HR MIN TEMP:  85; 6HR MAX TEMP:  90; 6HR PCP: TRACE;

TOPEKA FORBES  MOCLDY    86  74  67 CALM      29.81R
6HR MIN TEMP:  85; 6HR MAX TEMP:  91;

$$




USA.gov is the U.S. government's official web portal to all federal, state and local government web resources and services.